| DS18B20 | SHTC3 | ||||||
|---|---|---|---|---|---|---|---|
| ID | Date d/m/Y & Time | data1 สูง | data2 ต่ำ | data3 นอก | temp pcb | hum pcb | Time |
| 7103 | 30/03/2026 05:25:49 | 28.0  | 27.9  | 26.8  | 27.8  | 72.5  | 05:25 |
| 7102 | 30/03/2026 05:21:08 | 28.0  | 27.9  | 26.9  | 27.9  | 72.5  | 05:21 |
| 7101 | 30/03/2026 05:16:26 | 28.0  | 28.0  | 26.9  | 27.8  | 72.4  | 05:16 |
| 7100 | 30/03/2026 05:11:44 | 28.0  | 28.0  | 26.9  | 27.8  | 72.6  | 05:11 |
| 7099 | 30/03/2026 05:07:03 | 28.0  | 28.0  | 26.8  | 27.9  | 72.5  | 05:07 |
| 7098 | 30/03/2026 05:02:22 | 28.0  | 28.0  | 26.9  | 27.8  | 72.5  | 05:02 |
| 7097 | 30/03/2026 04:57:41 | 28.0  | 28.0  | 26.9  | 27.9  | 72.5  | 04:57 |
| 7096 | 30/03/2026 04:52:59 | 28.1  | 28.0  | 27.0  | 28.0  | 72.5  | 04:52 |
| 7095 | 30/03/2026 04:48:17 | 28.1  | 28.1  | 26.9  | 28.0  | 72.7  | 04:48 |
| 7094 | 30/03/2026 04:43:36 | 28.1  | 28.1  | 27.0  | 27.9  | 72.5  | 04:43 |
| 7093 | 30/03/2026 04:38:54 | 28.1  | 28.1  | 27.0  | 27.9  | 72.7  | 04:38 |
| 7092 | 30/03/2026 04:34:13 | 28.1  | 28.1  | 27.1  | 27.9  | 72.5  | 04:34 |
| 7091 | 30/03/2026 04:29:29 | 28.1  | 28.1  | 27.1  | 28.0  | 72.5  | 04:29 |
| 7090 | 30/03/2026 04:24:48 | 28.1  | 28.1  | 27.2  | 27.9  | 72.5  | 04:24 |
| 7089 | 30/03/2026 04:20:06 | 28.1  | 28.1  | 27.2  | 27.9  | 72.6  | 04:20 |
| 7088 | 30/03/2026 04:15:25 | 28.1  | 28.1  | 27.2  | 27.9  | 72.5  | 04:15 |
| 7087 | 30/03/2026 04:10:43 | 28.1  | 28.1  | 27.1  | 27.9  | 72.7  | 04:10 |
| 7086 | 30/03/2026 04:06:01 | 28.1  | 28.1  | 27.0  | 28.1  | 72.5  | 04:06 |
| 7085 | 30/03/2026 04:01:19 | 28.2  | 28.1  | 27.0  | 28.1  | 72.7  | 04:01 |
| 7084 | 30/03/2026 03:56:37 | 28.2  | 28.1  | 27.1  | 28.0  | 72.5  | 03:56 |
| 7083 | 30/03/2026 03:51:55 | 28.2  | 28.2  | 27.1  | 28.1  | 72.5  | 03:51 |
| 7082 | 30/03/2026 03:47:14 | 28.2  | 28.2  | 27.0  | 28.1  | 72.5  | 03:47 |
| 7081 | 30/03/2026 03:42:32 | 28.2  | 28.2  | 26.9  | 28.1  | 72.5  | 03:42 |
| 7080 | 30/03/2026 03:37:50 | 28.2  | 28.2  | 26.9  | 28.1  | 72.4  | 03:37 |